This is the latest recevied weather packets stored in our database for station/object IZ3ZOD-13. If no packets are shown the sender has not sent any weather packets the latest 10 day(s).
| Time | Temp. | Humidity | Pressure | Rain* | Wind** | Luminosity | Snow |
|---|---|---|---|---|---|---|---|
| 1778013363 | 14.44° C | 91% | 1013.3 hPa | 0 mm | - | - | - |
| 1778010483 | 14.44° C | 91% | 1013.3 hPa | 0 mm | - | - | - |
| 1778007363 | 14.44° C | 91% | 1013.4 hPa | 0 mm | - | - | - |
| 1778005683 | 14.44° C | 90% | 1013.1 hPa | 0 mm | - | - | - |
| 1778001843 | 15° C | 90% | 1013.1 hPa | 0 mm | - | - | - |
| 1777995123 | 16.67° C | 85% | 1013 hPa | 0 mm | - | - | - |
| 1777994884 | 16.67° C | 85% | 1013.1 hPa | 0 mm | - | - | - |
| 1777994164 | 16.67° C | 85% | 1013 hPa | 0 mm | - | - | - |
| 1777993443 | 16.67° C | 85% | 1013.1 hPa | 0 mm | - | - | - |
| 1777992853 | 16.67° C | 85% | 1013.1 hPa | 0 mm | - | - | - |
| 1777992483 | 16.11° C | 85% | 1013.1 hPa | 0 mm | - | - | - |
| 1777991763 | 16.11° C | 84% | 1013.3 hPa | 0 mm | - | - | - |
| 1777989123 | 16.11° C | 85% | 1013.7 hPa | 0 mm | - | - | - |
| 1777987923 | 16.11° C | 85% | 1013.7 hPa | 0 mm | - | - | - |
| 1777987443 | 16.67° C | 83% | 1013.6 hPa | 0 mm | - | - | - |
| 1777986483 | 16.67° C | 82% | 1013.8 hPa | 0 mm | - | - | - |
| 1777983363 | 16.11° C | 83% | 1014 hPa | 0 mm | - | - | - |
| 1777983124 | 16.11° C | 83% | 1014.1 hPa | 0 mm | - | - | - |
| 1777981683 | 16.11° C | 79% | 1014.1 hPa | 0 mm | - | - | - |
| 1777981443 | 16.11° C | 80% | 1014.2 hPa | 0 mm | - | - | - |
| 1777978803 | 16.11° C | 81% | 1014.4 hPa | 0.25 mm | - | - | - |
| 1777978215 | 16.11° C | 81% | 1014.2 hPa | 0.25 mm | - | - | - |
| 1777977017 | 16.11° C | 83% | 1014.2 hPa | 0 mm | - | - | - |
| 1777976776 | 16.11° C | 82% | 1014.5 hPa | 0 mm | - | - | - |
| 1777973764 | 16.11° C | 82% | 1014.4 hPa | 1.02 mm | - | - | - |
* Rain latest hour (hover to see other rain measurements)
** Current wind speed in m/s (hover to see current wind gust speed)